Weather Roundup
Issued by NWS

Home | Current Version | Previous Version | Graphics & Text | Print | Product List | Glossary Off
Versions: 1 2 3 4 5 6 7 8 9 10 11 12 13 14 15 16 17 18 19 20 21 22 23 24 25 26 27 28 29 30 31 32 33 34 35 36 37 38 39 40 41 42 43 44 45 46 47 48 49 50

000
NZUS93 KARX 280759
HRRWXR

CURRENT HOURLY OBSERVATIONS ACROSS
MUCH OF THE UPPER MISSISSIPPI VALLEY
NATIONAL WEATHER SERVICE LA CROSSE WI
300 AM CDT THU MAY 28 2015


...SOUTHEAST MINNESOTA...


CITY           SKY/WX    TMP DP  RH WIND       PRES   REMARKS
ROCHESTER      CLEAR     60  55  83 S7        30.09S
ROCHESTER/MAYO NOT AVBL
WINONA         NOT AVBL
AUSTIN         NOT AVBL
ALBERT LEA     NOT AVBL
DODGE CENTER   NOT AVBL
PRESTON        NOT AVBL
OWATONNA       NOT AVBL
FARIBAULT      NOT AVBL
$$

...ELSEWHERE IN MINNESOTA...


CITY           SKY/WX    TMP DP  RH WIND       PRES   REMARKS
MINNEAPOLIS    CLEAR     64  56  75 E3        30.03F
INTNL FALLS    PTCLDY    54  46  74 E7        30.03F
DULUTH         CLEAR     55  42  61 E14       30.09R
RED WING       NOT AVBL
REDWOOD FALLS  PTCLDY    65  53  65 S8        30.01F
MANKATO        MOCLDY    64  54  68 S7        30.05S
WORTHINGTON    CLEAR     63  48  59 S9        30.06S
FAIRMONT       PTCLDY    63  52  67 S6        30.05F
$$

...SOUTHWEST WISCONSIN...


CITY           SKY/WX    TMP DP  RH WIND       PRES   REMARKS
LA CROSSE      CLEAR     64  60  87 SE8       30.08S
PRAIRIE DU CHI CLEAR     59  57  92 CALM      30.10F
BOSCOBEL       PTCLDY    56  54  93 CALM      30.11S FOG
LONE ROCK      NOT AVBL
PLATTEVILLE    CLEAR     63  58  85 S5        30.14S
FORT MC COY    CLEAR     53  52  96 CALM      30.10F
CAMP DOUGLAS   CLEAR     55  55 100 S5        30.10S
VIROQUA        FAIR      63  57  81 S5        30.11S
WIS DELLS      CLEAR     62  56  82 CALM      30.12S
$$

...ELSEWHERE IN WISCONSIN...


CITY           SKY/WX    TMP DP  RH WIND       PRES   REMARKS
MILWAUKEE      PTCLDY    62  55  77 SW6       30.14R
MADISON        CLEAR     64  58  80 S3        30.13S
GREEN BAY      CLEAR     59  55  87 CALM      30.10R
EAU CLAIRE     NOT AVBL
BLACK RVR FLS  FAIR      53  53 100 CALM      30.08S FOG
MEDFORD        PTCLDY    55  53  91 S3        30.10R
WAUSAU         CLEAR     56  55  97 CALM      30.09R
WIS RAPIDS     CLEAR     56  53  90 E3        30.11R
MARSHFIELD     CLEAR     57  53  86 CALM      30.10S
RICE LAKE      CLEAR     55  53  93 CALM      30.08S
$$

...NORTHEAST IOWA...


CITY           SKY/WX    TMP DP  RH WIND       PRES   REMARKS
DECORAH        PTCLDY    64  57  77 CALM      30.09F
MASON CITY     CLEAR     59  55  87 S7        30.10S
CHARLES CITY   CLEAR     61  59  94 S7        30.10S
OELWEIN        CLEAR     61  57  88 S8        30.11F
$$

...ELSEWHERE IN IOWA...


CITY           SKY/WX    TMP DP  RH WIND       PRES   REMARKS
DES MOINES     CLEAR     65  57  75 S7        30.11R
IOWA CITY      CLEAR     60  58  92 CALM      30.14S
FORT DODGE     PTCLDY    63  54  72 CALM      30.10R
$$

...NORTHERN ILLINOIS...


CITY           SKY/WX    TMP DP  RH WIND       PRES   REMARKS
CHICAGO-OHARE  PTCLDY    59  55  87 SW3       30.16S
CHICAGO-MIDWAY PTCLDY    63  56  78 S3        30.16S
MOLINE         PTCLDY    62  55  77 CALM      30.14S
ROCKFORD       CLEAR     58  55  90 SE6       30.16F
PEORIA         PTCLDY    61  56  83 NE3       30.16F
$$

NOTE: "FAIR" INDICATES FEW OR NO CLOUDS BELOW 12,000 FEET WITH NO
SIGNIFICANT WEATHER AND/OR OBSTRUCTIONS TO VISIBILITY. WIND
SPEEDS ARE IN MILES-PER-HOUR.



USA.gov is the U.S. government's official web portal to all federal, state and local government web resources and services.